Location: ??
(35.1583°N, 139.6265°E)
Time: 22:41:42
(UTC+00:00)

Daily predictions for brighter satellites

Satellite Brightness Start Highest point End
(mag) Time Altitude Azimuth Time Altitude Azimuth Time Altitude Azimuth
COSMOS 2406 4.4 18:41:42 36° SE 18:42:34 38° ESE 18:47:46 10° NE
Cosmos 2082 Rocket 4.3 18:53:41 16° NNE 18:53:41 16° NNE 18:54:49 10° NNE
Cosmos 2098 Rocket 3.9 19:06:19 71° SE 19:06:19 71° SE 19:11:30 10° S
Cosmos 1980 Rocket 2.2 19:15:52 72° S 19:15:52 72° S 19:20:50 10° SSE
Cosmos 2142 Rocket 4.4 19:13:28 40° N 19:15:54 82° E 19:22:04 10° S
FengYun 1-2 T 4.3 19:15:43 10° NNE 19:21:23 79° ESE 19:27:01 10° S
Cosmos 2369 4.1 19:21:25 36° N 19:23:36 60° ENE 19:29:09 10° SSE
Cosmos 1933 4.0 19:28:33 48° ESE 19:28:33 48° ESE 19:31:47 10° SSE
Cosmos 489 Rocket 4.3 19:22:30 10° SSW 19:28:49 79° WNW 19:35:07 10° NNE
Nadezhda 4 Rocket 3.9 19:25:21 10° S 19:31:40 86° W 19:37:59 10° N
COSMOS 2455 3.1 19:31:07 31° N 19:34:01 66° ENE 19:39:59 10° SE
Cosmos 1606 Rocket 4.0 19:32:23 33° NNE 19:34:11 59° E 19:38:29 10° SSE
Cosmos 841 Rocket 4.1 19:39:45 41° NNW 19:39:45 41° NNW 19:43:22 10° N
CZ-3 R/B 3.7 19:30:19 30° W 19:38:53 44° SW 19:46:34 10° SE
Cosmos 2333 Rocket 4.1 19:42:14 10° N 19:47:01 26° ENE 19:51:46 10° ESE
Cosmos 546 4.4 19:51:16 81° NNW 19:51:24 85° NE 19:55:10 10° SE
Helios 1A Rocket 4.5 19:48:44 10° SE 19:51:34 26° ENE 19:54:26 10° NNE
SL-8 R/B 4.3 19:57:16 35° WSW 19:57:44 36° SW 20:02:03 10° SSE
SL-24 R/B - RUBIN 2 4.2 19:58:23 35° SW 19:58:23 35° SW 20:02:04 10° S
Cosmos 1726 Rocket 3.4 19:56:09 17° N 19:59:28 83° E 20:03:37 10° S
NOSS 2-1 (D) 3.6 20:04:42 32° NNW 20:06:39 88° ENE 20:12:10 10° SSE
SWAS 4.2 20:05:26 29° NNW 20:07:24 89° ENE 20:11:24 10° SSE
USA 59 Rocket 0.1 20:05:48 33° NW 20:07:43 82° WSW 20:13:21 10° SSE
Cosmos 2322 Rocket 3.9 20:05:39 10° N 20:10:38 30° ENE 20:15:35 10° ESE
Cosmos 1898 Rocket 3.6 20:08:14 23° NW 20:11:19 56° WSW 20:16:27 10° S
CZ-3C R/B 3.7 20:08:56 10° SSW 20:13:07 26° SSE 20:28:11 10° ESE
Cosmos 1892 Rocket 3.6 20:10:29 10° SSW 20:14:41 50° W 20:18:58 10° N
IRS-1D 3.7 20:10:16 10° N 20:15:04 45° WNW 20:19:54 10° SW
NOSS 2-1 (E) 3.6 20:14:49 23° NNW 20:17:20 87° ENE 20:22:49 10° SSE
Meteor 2-3 Rocket 3.9 20:13:39 10° SSW 20:19:09 47° WNW 20:24:39 10° N
Cosmos 1627 Rocket 4.4 20:15:36 10° SSW 20:21:38 65° W 20:27:44 10° N
Cosmos 405 Rocket 3.5 20:19:51 10° SSE 20:22:56 44° E 20:26:04 10° NNE
COSMO-SKYMED 1 2.3 20:21:39 10° S 20:25:45 78° WSW 20:29:52 10° NNW
COSMOS 2406 4.1 20:24:00 18° W 20:26:53 26° WNW 20:31:34 10° N
Meteor 1-26 Rocket 4.4 20:21:46 10° N 20:27:21 78° E 20:33:06 10° SSE
Cosmos 2237 4.3 20:23:06 14° NNW 20:27:54 55° WSW 20:33:24 10° S
Cosmos-2242 3.1 20:24:54 10° N 20:29:07 75° E 20:33:17 10° S
Tiangong -2.0 20:28:15 29° WNW 20:29:41 67° SSW 20:32:52 10° SE
Cosmos 1937 Rocket 3.7 20:28:48 13° NNW 20:33:12 47° WSW 20:38:06 10° S
Cosmos 2082 Rocket 4.1 20:35:35 11° NW 20:35:35 11° NW 20:35:59 10° NNW
Cosmos 858 Rocket 4.4 20:29:11 10° NNW 20:34:20 69° WSW 20:39:28 10° S
NOSS 2-1 (C) 4.0 20:33:31 18° NW 20:36:22 51° WSW 20:41:47 10° SSE
SL-16 R/B 2.2 20:32:46 10° NNW 20:38:27 85° WSW 20:44:06 10° SSE
OAO 2 Rocket 3.7 20:34:57 10° WSW 20:40:06 65° SSE 20:45:09 10° E
ARIANE 5 R/B 4.2 20:38:59 10° NNE 20:43:50 38° E 20:48:38 10° SSE
IRIDIUM 104 4.4 20:39:56 10° S 20:45:08 87° E 20:50:23 10° N
Delta 2 Rocket 4.1 20:43:51 13° WSW 20:45:52 25° SSW 20:48:24 10° SSE
Cosmos 2026 Rocket 4.4 20:42:11 10° SW 20:47:40 36° WNW 20:53:13 10° NNW
SOZ 4.2 20:43:56 10° SW 20:48:01 87° NW 20:50:23 10° NE
Cosmos 1602 Rocket 4.4 20:44:28 10° S 20:48:46 54° E 20:53:07 10° NNE
Cosmos 1733 1.1 20:48:25 10° SSW 20:49:53 41° W 20:51:23 10° N
NOSS 3-1 (C) 4.4 20:43:34 10° NW 20:51:17 61° WSW 21:00:26 10° SSE
Cosmos 1814 Rocket 4.2 20:47:42 10° SW 20:52:44 50° WNW 20:57:51 10° N
IRIDIUM 114 4.3 20:49:04 10° S 20:54:16 76° W 20:59:30 10° N
DMSP B5D1-3 4.5 20:49:23 10° S 20:54:29 80° WSW 20:59:37 10° NNW
Cosmos 2058 Rocket 3.4 20:51:48 10° NNW 20:56:02 45° W 21:00:11 10° SSW
IGS 5A 3.5 20:52:53 10° N 20:56:45 49° WNW 21:00:36 10° SSW
BREEZE-M DEB (TANK) 4.2 20:58:03 10° NW 21:01:18 35° NNE 21:09:23 10° E
Cosmos 2278 3.8 20:56:45 10° NNW 21:02:19 60° WSW 21:07:49 10° S
CBERS-1 4.1 20:58:27 10° N 21:03:25 57° WNW 21:08:23 10° SSW
IRIDIUM 103 4.4 20:58:18 10° SSW 21:03:26 61° W 21:08:36 10° N
OAO 3 Copernicus 4.3 20:59:02 10° W 21:04:04 89° S 21:09:05 10° E
BREEZE-M DEB (TANK) 3.7 20:59:58 10° WNW 21:05:06 38° SW 21:07:58 10° SSE
SJ-12 4.4 21:01:37 10° NNE 21:05:23 61° E 21:09:09 10° S
BREEZE-M DEB (TANK) 3.3 21:05:19 10° W 21:07:42 29° NNW 21:09:58 10° NNE
MOS 1 Rocket 4.3 21:03:35 10° NNE 21:08:54 62° E 21:14:01 10° S
CORIOLIS 4.2 21:04:09 10° N 21:09:33 83° WNW 21:14:57 10° SSW
Cosmos 1484 Rocket 3.6 21:06:54 10° NNW 21:09:33 21° WNW 21:12:10 10° WSW
BREEZE-M DEB (TANK) 4.3 21:06:31 10° SW 21:11:08 88° SE 21:31:20 10° NE
Cosmos 1437 Rocket 4.2 21:09:40 10° N 21:12:52 34° ENE 21:16:04 10° SE
Cosmos 1553 Rocket 4.2 21:12:30 10° NNW 21:18:46 59° W 21:25:02 10° S
